sat.trackr.live / text

‹ back to catalog

VINASAT-1

NORAD 32767 · 2008-018A

PAYLOAD ACTIVE UNKNOWN

§ Identity

Operator
Country
VTNM
Launch date
2008-04-18
Launch site
FRGUI
Launch vehicle
Mass (kg)
RCS (m²)
12.59

Purposes: comms

External: N2YO · Heavens-Above · Gunter

§ Orbital elements

Epoch: 2026-09-19T20:41:38.647968Z

Period
1,436.13 min
Inclination
0.0124°
Eccentricity
0.0001872
Mean motion
1.00269760 rev/d
Perigee alt
35,779.3 km
Apogee alt
35,795.1 km
Semi-major
42,165.3 km
B*
0.0000e+0
RAAN
176.8038°
Arg perigee
17.2788°
Mean anomaly
247.0419°
Rev number
6,753

§ Raw data

VINASAT-11 32767U 08018A   26262.86225287  .00000000  00000+0  00000+0 0  99982 32767   0.0124 176.8038 0001872  17.2788 247.0419  1.00269760 67537

JSON: /api/v1/satellites/32767 · /tle

For live sub-satellite position, see the globe view (requires WebGL).

§ Visibility from observer

Set your observer location to see the next 7 days of passes ≥ 10°. The values pass through the URL so the page stays shareable.

No JS? Fill the form by hand. The geolocation button needs JavaScript.